STARLINK-1159, 45057

Orbit data source: Space-Track

STARLINK-1159, 45057 is a payload satellite owned by SpaceX/Seattle (US) in LEO that was launched on Wed, 29 Jan 2020 UTC via an FALCON 9 launch vehicle from the Air Force Eastern Test Range (AFETR). Payload-class satellites include a variety of spacecraft equipped with specific instruments for various scientific and technological missions. These include communications satellites like Starlink; space stations such as the ISS; scientific satellites like the Hubble; Earth observation satellites from companies like Planet Labs, Umbra, and HawkEye 360; GPS; miniature CubeSats for education and research; and military/defense satellites.

Loading next visibility...
Identifier
45057, 2020-006P
Orbit
LEO
Country
Flag of USUS
Related business
Manufacturer
SpaceX/Seattle
Mission
Partially operational Commercial Communications
Bus & Motor
STARLINK, Unknown motor
Mass
260 kg wet, ~248 kg dry
Launch date (UTC)
2020-01-29 (6 years ago)
Launch vehicle
FALCON 9
Launch site
Air Force Eastern Test Range (AFETR)
Object type
Payload
Rocket body
Debris
Shape & HBR
Box + 1 Pan, 10.1 m
Radar Cross Section
13.562 m², Large (>1 m²)

Expand to show TLE details & history
Last TLE update: 1 day ago

TLE from 1 day ago
0 STARLINK-1159
1 45057U 20006P   25312.91667823  .01325088  00000-0  29721-1 0  9993
2 45057  53.0552 106.4073 0001050  81.8920 353.0186 15.40142742  5830
Epoch: 2025-11-08T22:00Z
TLE epoch observation values (Epoch: 2025-11-08T22:00:00.999Z)
Latitude
50.65326°
Longitude
153.87515°
Altitude
450.931 km
Speed
7.648 km/s
True Right ascension
11h 28m 52s
True Declination
50° 28' 37"
Sunlit
Object was in daylight at epoch
Visualization orbit readout
Latitude
Unknown
Longitude
Unknown
Altitude
Unknown
Speed
Unknown
Apparent Right ascension
Unknown
Apparent Declination
Unknown
Sunlit
N/A
Visualization observer readout
Local Sidereal Time
19:24:49
Azimuth
Unknown
Elevation
Unknown
Doppler factor
Unknown
Orbital elements
Apogee altitude
446.679 km
Perigee altitude
445.246 km
Semi-major axis
6,824.099 km
Eccentricity
0.00011
Inclination
53.0552°
RAAN
106.4073°
Arg. of periapsis
81.892°
True anomaly
353.01714°
Mean anomaly
353.0186°
Eccentric anomaly
353.01787°
Mean motion
3.85013 °/min
Orbital period
93.5 mins
BSTAR
0.029721
Loading maneuver chart data...
Computing Atmospheric mass density...

Documentation

Showing up to 5 results
|